Mineral Point, WI

5:40 PM CST on December 18, 2017 (GMT -0600)
Iowa County

Weather History for KMRJ - January, 2012

Change the Weather History Date:

Thursday, January 26, 2012

  Actual Average (KLNR) Record (KLNR)
Temperature  
Mean Temperature 32 °F -  
Max Temperature 33 °F 26 °F 71 °F (2000)
Min Temperature 30 °F 11 °F -9 °F (2003)
Degree Days  
Heating Degree Days 34    
Moisture  
Dew Point 30 °F    
Average Humidity 94    
Maximum Humidity 100    
Minimum Humidity 86    
Precipitation  
Precipitation 0.00 in - - ()
Sea Level Pressure  
Sea Level Pressure 29.76 in    
Wind  
Wind Speed 8 mph (SW)    
Max Wind Speed 14 mph    
Max Gust Speed 20 mph    
Visibility 2 miles    
Events Fog    
Averages and records for this station are not official NWS values.
T = Trace of Precipitation, MM = Missing Value Source: NWS Daily Summary

Daily Weather History Graph

Daily Weather History Graph

Search for Another Location

Airport or City:

Trip Planner

Search our weather history database for the weather conditions in past years. The results will help you decide how hot, cold, wet, or windy it might be!

Date:

Astronomy

Jan. 26, 2012 Rise Set
Actual Time 7:21 AM CST 5:05 PM CST
Civil Twilight 6:51 AM CST 5:35 PM CST
Nautical Twilight 6:17 AM CST 6:10 PM CST
Astronomical Twilight 5:43 AM CST 6:43 PM CST
Moon 8:42 AM CST (1/26) 9:05 PM CST (1/26)
Length of Visible Light 10h 44m
Length of Day
9h 43m
Waxing Crescent, 12% of the Moon is Illuminated
Jan 26
Waxing Crescent
Jan 30
First Quarter
Feb 7
Full
Feb 14
Last Quarter
Feb 21
New

Hourly Weather History & Observations

Time (CST) Temp. Windchill Dew Point Humidity Pressure Visibility Wind Dir Wind Speed Gust Speed Precip Events Conditions
12:15 AM 30.2 °F 21.9 °F 26.6 °F 86% 29.97 in 2.5 mi South 9.2 mph - N/A   Overcast
12:35 AM 30.2 °F 21.3 °F 28.4 °F 93% 29.95 in 2.5 mi SSE 10.4 mph 16.1 mph N/A   Overcast
12:55 AM 30.2 °F 21.9 °F 28.4 °F 93% 29.95 in 2.0 mi South 9.2 mph - N/A   Overcast
1:15 AM 30.2 °F 21.3 °F 28.4 °F 93% 29.95 in 2.0 mi SSE 10.4 mph - N/A   Overcast
1:35 AM 30.2 °F 21.3 °F 28.4 °F 93% 29.94 in 2.0 mi South 10.4 mph - N/A   Overcast
1:55 AM 30.2 °F 19.8 °F 28.4 °F 93% 29.94 in 2.0 mi SSE 13.8 mph - N/A   Overcast
2:15 AM 30.2 °F 21.3 °F 28.4 °F 93% 29.94 in 2.5 mi SSE 10.4 mph - N/A   Overcast
2:55 AM 30.2 °F 20.2 °F 28.4 °F 93% 29.92 in 2.5 mi SSE 12.7 mph - N/A   Overcast
3:15 AM 30.2 °F 21.3 °F 28.4 °F 93% 29.90 in 2.5 mi SSE 10.4 mph - N/A   Overcast
3:35 AM 30.2 °F 21.9 °F 28.4 °F 93% 29.89 in 1.8 mi SSE 9.2 mph - N/A   Overcast
3:55 AM 30.2 °F 21.9 °F 28.4 °F 93% 29.88 in 1.0 mi SSE 9.2 mph - N/A   Overcast
4:15 AM 30.2 °F 23.4 °F 28.4 °F 93% 29.87 in 0.5 mi South 6.9 mph - N/A Fog Light Freezing Fog
4:35 AM 30.2 °F 24.3 °F 28.4 °F 93% 29.87 in 0.2 mi South 5.8 mph - N/A Fog Light Freezing Fog
4:55 AM 30.2 °F 23.4 °F 28.4 °F 93% 29.86 in 0.2 mi South 6.9 mph - N/A Fog Light Freezing Fog
5:15 AM 30.2 °F 25.4 °F 28.4 °F 93% 29.85 in 0.2 mi SSE 4.6 mph - N/A Fog Light Freezing Fog
5:35 AM 30.2 °F 25.4 °F 28.4 °F 93% 29.85 in 0.2 mi SSE 4.6 mph - N/A Fog Light Freezing Fog
6:15 AM 30.2 °F 25.4 °F 28.4 °F 93% 29.85 in 0.2 mi South 4.6 mph - N/A Fog Light Freezing Fog
6:35 AM 30.2 °F 25.4 °F 28.4 °F 93% 29.85 in 0.2 mi South 4.6 mph - N/A Fog Light Freezing Fog
7:15 AM 30.2 °F 22.6 °F 28.4 °F 93% 29.83 in 0.2 mi SSE 8.1 mph - N/A Fog Light Freezing Fog
7:35 AM 30.2 °F 23.4 °F 28.4 °F 93% 29.84 in 0.2 mi South 6.9 mph - N/A Fog Light Freezing Fog
8:15 AM 30.2 °F 23.4 °F 28.4 °F 93% 29.82 in 0.2 mi SSE 6.9 mph - N/A Fog Light Freezing Fog
8:35 AM 32.0 °F 26.4 °F 28.4 °F 87% 29.82 in 0.2 mi South 5.8 mph - N/A Fog Light Freezing Fog
9:35 AM 32.0 °F 26.4 °F 30.2 °F 93% 29.82 in 0.2 mi South 5.8 mph - N/A Fog Fog
9:55 AM 32.0 °F 27.5 °F 30.2 °F 93% 29.81 in 0.2 mi South 4.6 mph - N/A Fog Fog
10:35 AM 32.0 °F 27.5 °F 32.0 °F 100% 29.78 in 0.2 mi South 4.6 mph - N/A Fog Fog
10:55 AM 32.0 °F 24.2 °F 32.0 °F 100% 29.76 in 0.2 mi SSW 9.2 mph - N/A Fog Fog
11:15 AM 32.0 °F 24.2 °F 32.0 °F 100% 29.75 in 0.2 mi SW 9.2 mph - N/A Fog Fog
11:35 AM 33.8 °F 27.0 °F 32.0 °F 93% 29.74 in 0.2 mi SW 8.1 mph - N/A Fog Fog
11:55 AM 33.8 °F 27.7 °F 32.0 °F 93% 29.73 in 0.2 mi SW 6.9 mph - N/A Fog Fog
12:15 PM 32.0 °F 24.2 °F 32.0 °F 100% 29.73 in 0.2 mi SW 9.2 mph - N/A Fog Fog
12:35 PM 32.0 °F 23.6 °F 32.0 °F 100% 29.72 in 0.2 mi SW 10.4 mph - N/A Fog Fog
12:55 PM 32.0 °F 25.6 °F 32.0 °F 100% 29.71 in 0.2 mi WSW 6.9 mph - N/A Fog Fog
1:15 PM 32.0 °F 24.2 °F 32.0 °F 100% 29.70 in 0.2 mi SW 9.2 mph - N/A Fog Fog
1:35 PM 33.8 °F 26.4 °F 32.0 °F 93% 29.69 in 0.2 mi SW 9.2 mph - N/A Fog Fog
1:55 PM 33.8 °F 28.6 °F 32.0 °F 93% 29.68 in 0.2 mi West 5.8 mph - N/A Fog Fog
2:15 PM 33.8 °F 27.0 °F 32.0 °F 93% 29.70 in 0.2 mi West 8.1 mph - N/A Fog Fog
2:55 PM 32.0 °F 23.6 °F 32.0 °F 100% 29.70 in 0.2 mi West 10.4 mph - N/A Fog Fog
3:15 PM 32.0 °F 24.2 °F 32.0 °F 100% 29.69 in 0.5 mi WSW 9.2 mph - N/A Fog Fog
3:35 PM 32.0 °F 25.6 °F 32.0 °F 100% 29.68 in 0.8 mi West 6.9 mph - N/A   Overcast
3:55 PM 32.0 °F 23.6 °F 32.0 °F 100% 29.68 in 1.5 mi West 10.4 mph - N/A   Overcast
4:15 PM 33.8 °F 25.8 °F 32.0 °F 93% 29.67 in 1.8 mi West 10.4 mph - N/A   Overcast
4:35 PM 33.8 °F 27.0 °F 32.0 °F 93% 29.67 in 2.0 mi West 8.1 mph - N/A   Overcast
4:55 PM 33.8 °F 26.4 °F 32.0 °F 93% 29.66 in 2.0 mi West 9.2 mph - N/A   Overcast
5:15 PM 33.8 °F 28.6 °F 32.0 °F 93% 29.67 in 2.0 mi West 5.8 mph - N/A   Overcast
5:35 PM 33.8 °F 28.6 °F 32.0 °F 93% 29.67 in 2.5 mi WSW 5.8 mph - N/A   Overcast
5:55 PM 33.8 °F 29.6 °F 32.0 °F 93% 29.68 in 2.5 mi West 4.6 mph - N/A   Overcast
6:15 PM 33.8 °F 28.6 °F 32.0 °F 93% 29.67 in 3.0 mi West 5.8 mph - N/A   Overcast
6:35 PM 33.8 °F 27.7 °F 32.0 °F 93% 29.67 in 3.0 mi West 6.9 mph - N/A   Overcast
6:55 PM 33.8 °F 27.7 °F 32.0 °F 93% 29.66 in 3.0 mi WNW 6.9 mph - N/A   Mostly Cloudy
7:15 PM 32.0 °F 26.4 °F 32.0 °F 100% 29.66 in 3.0 mi WNW 5.8 mph - N/A   Scattered Clouds
7:35 PM 32.0 °F 26.4 °F 32.0 °F 100% 29.65 in 3.0 mi WNW 5.8 mph - N/A   Clear
7:55 PM 32.0 °F 26.4 °F 30.2 °F 93% 29.66 in 3.0 mi NW 5.8 mph - N/A   Clear
8:15 PM 32.0 °F 25.6 °F 30.2 °F 93% 29.66 in 4.0 mi WNW 6.9 mph - N/A   Clear
8:35 PM 32.0 °F 26.4 °F 30.2 °F 93% 29.66 in 5.0 mi WNW 5.8 mph - N/A   Clear
9:15 PM 30.2 °F 23.4 °F 28.4 °F 93% 29.66 in 5.0 mi NW 6.9 mph - N/A   Clear
9:35 PM 30.2 °F 22.6 °F 28.4 °F 93% 29.66 in 5.0 mi WNW 8.1 mph - N/A   Clear
9:55 PM 30.2 °F 21.9 °F 28.4 °F 93% 29.67 in 7.0 mi NW 9.2 mph - N/A   Scattered Clouds
10:15 PM 32.0 °F 24.2 °F 28.4 °F 87% 29.67 in 10.0 mi NW 9.2 mph - N/A   Scattered Clouds
10:35 PM 32.0 °F 24.2 °F 28.4 °F 87% 29.67 in 10.0 mi NW 9.2 mph - N/A   Overcast
10:55 PM 32.0 °F 23.6 °F 30.2 °F 93% 29.67 in 10.0 mi NNW 10.4 mph - N/A   Overcast
11:15 PM 32.0 °F 24.2 °F 30.2 °F 93% 29.68 in 10.0 mi NNW 9.2 mph - N/A   Overcast
11:35 PM 32.0 °F 22.1 °F 28.4 °F 87% 29.68 in 10.0 mi NNW 13.8 mph 19.6 mph N/A   Scattered Clouds